Home > Weather > Charlotte Amalie > Past weeks

Flag for US Virgin Islands Weather for the Past 2 Weeks in Charlotte Amalie, US Virgin Islands

Now
82 °F

Passing clouds.


Feels Like: 86 °F
Forecast: 75 / 83 °F
Wind: 15 mph from Southeast

Location: Cyril E. King International Airport

Current Time: Feb 10, 2016 at 11:47:06 AM

Latest Report: Feb 10, 2016 at 10:53 AM


Visibility: 10 mi

Pressure: 30.14 "Hg

Humidity: 70%

Dew point: 71 °F

Location of Charlotte AmalieLocation

Historic Weather in Charlotte Amalie — Graph

°F

Charlotte Amalie Temperature Yesterday

Maximum temperature yesterday: 83 °F (at 10:53 AM)
Minimum temperature yesterday: 76 °F (at 1:53 AM)
Average temperature yesterday: 80 °F

High & Low Weather Summary for the Past Weeks

 TemperatureHumidityPressure
High86 °F (Jan 26, 12:53 PM)97% (Jan 30, 7:53 AM)30.17 "Hg (Jan 30, 7:53 AM)
Low71 °F (Feb 5, 6:53 AM)51% (Jan 26, 11:53 AM)29.89 "Hg (Feb 4, 3:53 PM)
Average78 °F74%30.03 "Hg
* Reported Jan 26 10:53 AM — Feb 10 10:53 AM, Charlotte Amalie, Weather by CustomWeather, © 2016

Note: Actual official high and low records may vary slightly from our data, if they occured in-between our weather recording intervals... More about our weather records

Advertising

Charlotte Amalie Weather History for the Previous 24 Hours

 ConditionsComfort  
Time TempWeatherWind HumidityBarometerVisibility
10:53 AM
Wed, Feb 10
82 °FPassing clouds.15 mph70%30.14 "Hg10 mi
9:53 AM82 °FPassing clouds.13 mph72%30.14 "Hg10 mi
8:53 AM81 °FScattered clouds.13 mph74%30.13 "Hg10 mi
8:03 AM79 °FBroken clouds.15 mph77%30.11 "Hg10 mi
6:53 AM75 °FSunny.6 mph85%30.08 "Hg10 mi
5:53 AM76 °FPassing clouds.7 mph85%30.07 "Hg10 mi
4:53 AM77 °FPassing clouds.12 mph82%30.06 "Hg10 mi
4:01 AM78 °FPartly cloudy.14 mph79%30.05 "Hg10 mi
2:53 AM78 °FPassing clouds.13 mph82%30.05 "Hg10 mi
1:53 AM77 °FClear.12 mph85%30.06 "Hg10 mi
12:53 AM78 °FClear.9 mph82%30.09 "Hg10 mi
11:53 PM
Tue, Feb 9
79 °FPassing clouds.5 mph79%30.09 "Hg10 mi
11:14 PM80 °FPartly cloudy.12 mph79%30.10 "Hg10 mi
10:53 PM79 °FPassing clouds.7 mph82%30.10 "Hg10 mi
10:26 PM80 °FPassing clouds.9 mph76%30.10 "Hg10 mi
9:53 PM80 °FPassing clouds.9 mph79%30.10 "Hg10 mi
8:53 PM80 °FPassing clouds.8 mph76%30.10 "Hg10 mi
7:53 PM79 °FPassing clouds.8 mph79%30.08 "Hg10 mi
6:53 PM79 °FClear.9 mph79%30.07 "Hg10 mi
6:18 PM80 °FPassing clouds.12 mph76%30.06 "Hg10 mi
4:53 PM81 °FSunny.12 mph74%30.05 "Hg10 mi
3:53 PM81 °FSunny.12 mph74%30.05 "Hg10 mi
2:53 PM81 °FSunny.12 mph74%30.04 "Hg10 mi
1:53 PM82 °FSunny.12 mph72%30.06 "Hg10 mi
12:53 PM82 °FSunny.10 mph72%30.09 "Hg10 mi
11:53 AM82 °FSunny.14 mph70%30.11 "Hg10 mi
Weather by CustomWeather, © 2016

See weather overviewHow to use our weather pages